Location: Bittkow
(50.3000°N, 19.0000°E)
Time: 12:32:31
(UTC+00:00)

Cosmos 972 Rocket - Pass Details

Date: 19 September 2020
Orbit: 713 x 1151 km, 75.8° (Epoch: 23 October)

Event Time Altitude Azimuth Distance (km) Brightness Sun altitude
Exits shadow 01:40:30 43° 148° (SSE) 995 4.5 -25.3°
Maximum altitude 01:41:36 53° 105° (ESE) 876 4.4 -25.2°
Drops below altitude 10° 01:46:23 10° 29° (NNE) 2,217 7.3 -24.6°
Sets 01:48:47 0° 25° (NNE) 3,166 8.2 -24.3°
